IRIDIUM 100

Last updated on Tue Sep 22 2026 00:03:21 GMT+0000 (Coordinated Universal Time)

1 42956U 17061B 26264.23600370 .00000014 00000+0 -19968-5 0 9995 2 42956 86.4018 345.0530 0002052 95.3954 264.7476 14.34217579468545
UTC large
Height (km)
Speed (km/s)
/
Latitude / Longitude
Inclination (degrees)
Orbital Period (minutes)
Azimuth
Elevation
Range (km)
Doppler Factor

Next 0 passes for location: London (51.5072 / 0.1276)

No passes found over London.
IRIDIUM 100